Location: ??????????
(54.8537°N, 38.8755°E)
Time: 07:40:32
(UTC+00:00)

Vanguard 3 - All Passes

Search period start: 19 September 2024 00:00
Search period end: 29 September 2024 00:00
Orbit: 507 x 3225 km, 33.4° (Epoch: 18 September)

Date Brightness Start Highest point End Pass type
(mag) Time Alt. Az. Time Alt. Az. Time Alt. Az.
19 Sep - 00:59:33 10° SSE 01:07:41 15° SE 01:16:17 10° ESE visible
19 Sep - 03:04:39 10° SSW 03:19:11 30° SSE 03:33:42 10° ESE daylight
19 Sep - 05:15:40 10° WSW 05:32:01 36° S 05:46:15 10° SE daylight
19 Sep - 07:29:52 10° WSW 07:44:22 28° SSW 07:55:54 10° SSE daylight
19 Sep - 09:49:16 10° WSW 09:54:47 12° SW 09:59:41 10° SSW daylight
20 Sep - 01:46:53 10° S 01:59:00 23° SE 02:12:00 10° ESE visible
20 Sep - 03:55:36 10° SW 04:11:18 34° S 04:26:28 10° ESE daylight
20 Sep - 06:08:09 10° WSW 06:24:12 34° SSW 06:37:47 10° SE daylight
20 Sep - 08:23:56 10° WSW 08:35:50 21° SW 08:45:33 10° S daylight
21 Sep - 00:31:31 10° SSE 00:39:25 15° SE 00:48:02 10° ESE visible
21 Sep - 02:36:39 10° SSW 02:50:43 30° SSE 03:05:43 10° ESE visible
21 Sep - 04:47:22 10° WSW 05:03:33 36° S 05:18:39 10° SE daylight
21 Sep - 07:01:15 10° WSW 07:16:07 29° SSW 07:28:34 10° SSE daylight
21 Sep - 09:20:15 10° WSW 09:26:48 13° SW 09:32:38 10° SSW daylight
22 Sep - 01:19:03 10° S 01:30:37 23° SE 01:43:42 10° ESE visible
22 Sep - 03:27:34 10° SW 03:42:47 35° S 03:58:32 10° ESE daylight
22 Sep - 05:39:46 10° WSW 05:55:46 34° SSW 06:10:12 10° SE daylight
22 Sep - 07:55:14 10° WSW 08:07:38 22° SW 08:18:11 10° S daylight
23 Sep - 00:03:47 10° SSE 00:11:11 15° SE 00:19:29 10° ESE visible
23 Sep - 02:08:50 10° SSW 02:22:16 30° SSE 02:37:27 10° ESE visible
23 Sep - 04:19:16 10° WSW 04:35:02 36° S 04:50:46 10° SE daylight
23 Sep - 06:32:46 10° WSW 06:47:44 29° SSW 07:00:58 10° SSE daylight
23 Sep - 08:51:28 10° WSW 08:58:40 14° SW 09:05:12 10° SSW daylight
24 Sep - 00:51:25 10° S 01:02:17 23° SE 01:15:09 10° ESE visible
24 Sep - 02:59:44 10° SW 03:14:15 35° SSE 03:30:21 10° ESE daylight
24 Sep - 05:11:34 10° WSW 05:27:15 34° SSW 05:42:21 10° SE daylight
24 Sep - 07:26:40 10° WSW 07:39:18 22° SW 07:50:31 10° S daylight
24 Sep - 23:36:20 10° SSE 23:43:01 14° SE 23:50:40 10° ESE visible
25 Sep - 01:41:14 10° SSW 01:53:50 30° SSE 02:08:56 10° ESE visible
25 Sep - 03:51:22 10° WSW 04:06:27 36° S 04:22:38 10° SE daylight
25 Sep - 06:04:28 10° WSW 06:19:14 29° SSW 06:33:07 10° SSE daylight
25 Sep - 08:22:53 10° WSW 08:30:24 14° SW 08:37:22 10° SSW daylight
26 Sep - 00:24:00 10° S 00:34:01 22° SE 00:46:22 10° ESE visible
26 Sep - 02:32:06 10° SW 02:45:45 34° SSE 03:01:54 10° ESE visible
26 Sep - 04:43:34 10° WSW 04:58:40 34° SSW 05:14:14 10° SE daylight
26 Sep - 06:58:19 10° WSW 07:10:51 22° SW 07:22:34 10° S daylight
26 Sep - 23:09:10 10° SSE 23:14:56 14° SE 23:21:36 10° ESE visible
27 Sep - 01:13:48 10° SSW 01:25:28 29° SSE 01:40:12 10° ESE visible
27 Sep - 03:23:39 10° WSW 03:37:54 35° S 03:54:13 10° SE daylight
27 Sep - 05:36:23 10° WSW 05:50:40 29° SSW 06:04:58 10° SSE daylight
27 Sep - 07:54:35 10° WSW 08:02:02 13° SW 08:09:09 10° SSW daylight
27 Sep - 23:56:46 10° S 00:05:51 21° SE 00:17:24 10° ESE visible
28 Sep - 02:04:38 10° SW 02:17:18 33° SSE 02:33:12 10° ESE visible
28 Sep - 04:15:45 10° WSW 04:30:04 33° SSW 04:45:51 10° SE daylight
28 Sep - 06:30:09 10° WSW 06:42:20 21° SW 06:54:18 10° S daylight
28 Sep - 22:42:16 10° SSE 22:46:57 13° SE 22:52:19 10° ESE visible
